Regional Weather Roundup
Issued by NWS

Home | Current Version | Previous Version | Graphics & Text | Print | Product List | Glossary On
Versions: 1 2 3 4 5 6 7 8 9 10 11 12 13 14 15 16 17 18 19 20 21 22 23 24 25 26 27 28 29 30 31 32 33 34 35 36 37 38 39 40 41 42 43 44 45 46 47 48 49 50
000
ASUS45 KCYS 230710
RWRWY

WYOMING REGIONAL WEATHER ROUNDUP
NATIONAL WEATHER SERVICE CHEYENNE WY
100 AM MDT THU MAR 23 2017

NOTE:  "FAIR" INDICATES FEW OR NO CLOUDS BELOW 12,000 FEET
WITH NO SIGNIFICANT WEATHER AND/OR OBSTRUCTIONS TO VISIBILITY.

WYZ001-230800-
YELLOWSTONE NATIONAL PARK

CITY           SKY/WX    TMP DP  RH WIND       PRES   REMARKS
LK YELLOWSTONE   N/A     28  27  96 CALM      29.87F
W YELLOWSTONE  NOT AVBL

$$
WYZ002>013-054>058-071-098>099-230800-
NORTHERN WYOMING

CITY           SKY/WX    TMP DP  RH WIND       PRES   REMARKS
JACKSON        MOCLDY    36  36 100 N5        29.82F WCI  32
CODY           FAIR      49  32  52 N7        29.79S
GREYBULL       LGT RAIN  51  43  74 CALM      29.70S
WORLAND        CLOUDY    51  38  60 W7        29.72F
SHERIDAN       MOCLDY    41  38  89 SW3       29.77S
BUFFALO        MOCLDY    46  38  73 NW9       29.77S
GILLETTE       CLOUDY    48  41  76 CALM      29.74F
HULETT         CLOUDY    52  41  66 S9        29.77F
NEWCASTLE      FAIR      48  37  66 NW8       29.78R

$$
WYZ014>020-022>026-101>103-230800-
CENTRAL WYOMING

CITY           SKY/WX    TMP DP  RH WIND       PRES   REMARKS
BIG PINEY      CLOUDY    33  33 100 NW6       29.83F WCI  28
PINEDALE       CLOUDY    32  32 100 CALM      29.83F
DUBOIS         CLOUDY    36  30  80 NW8       29.80F WCI  29
LANDER         LGT RAIN  44  37  76 W8        29.78F
RIVERTON       CLOUDY    47  36  65 W12       29.78F
CASPER         CLOUDY    45  40  82 SW6       29.79F
DOUGLAS        FAIR      46  39  76 NW8       29.78F

$$
WYZ021-027>030-104>119-230800-
SOUTHERN WYOMING

CITY           SKY/WX    TMP DP  RH WIND       PRES   REMARKS
EVANSTON       FOG       37  34  89 N8        29.78F VSB 1/2 WCI  31
KEMMERER         N/A     34  32  93 N9        29.81F WCI  26
FORT BRIDGER   CLOUDY    39  39 100 NE13      29.82F WCI  32
ROCK SPRINGS   RAIN      38  35  89 SW8       29.82F FOG     WCI  32
DIXON            N/A     47  33  59 E3        29.83F
RAWLINS        FAIR      44  32  62 VRB3      29.81F
SARATOGA       FAIR      43  32  65 CALM      29.82F
LARAMIE        FAIR      41  23  48 E6        29.82F
CHEYENNE       FAIR      48  37  65 S5        29.80F
TORRINGTON     FAIR      49  36  61 SE13      29.75R
PINE BLUFFS    FAIR      45  36  70 E9        29.79F

$$



USA.gov is the U.S. government's official web portal to all federal, state and local government web resources and services.